Homestead AFB, FL

11:34 PM EDT on June 27, 2017 (GMT -0400)
Dade County-Homestead Regional

Weather History for KHST - February, 2013

Change the Weather History Date:

Tuesday, February 26, 2013

  Actual Average Record
Temperature  
Mean Temperature 78 °F -  
Max Temperature 82 °F 75 °F 87 °F (1932)
Min Temperature 75 °F 52 °F 34 °F (1965)
Cooling Degree Days 14    
Growing Degree Days 28 (Base 50)    
Moisture  
Dew Point 72 °F    
Average Humidity 83    
Maximum Humidity 94    
Minimum Humidity 66    
Precipitation  
Precipitation 0.00 in - - ()
Sea Level Pressure  
Sea Level Pressure 29.89 in    
Wind  
Wind Speed 11 mph (South)    
Max Wind Speed 17 mph    
Max Gust Speed 24 mph    
Visibility 10 miles    
Events      
Averages and records for this station are not official NWS values.
T = Trace of Precipitation, MM = Missing Value Source: NWS Daily Summary

Daily Weather History Graph

Daily Weather History Graph

Search for Another Location

Airport or City:

Trip Planner

Search our weather history database for the weather conditions in past years. The results will help you decide how hot, cold, wet, or windy it might be!

Date:

Astronomy

Feb. 26, 2013 Rise Set
Actual Time 6:47 AM EST 6:21 PM EST
Civil Twilight 6:23 AM EST 6:45 PM EST
Nautical Twilight 5:57 AM EST 7:11 PM EST
Astronomical Twilight 5:30 AM EST 7:38 PM EST
Moon 7:23 PM EST (2/26) 6:58 AM EST (2/26)
Length of Visible Light 12h 21m
Length of Day
11h 34m
Full, 99% of the Moon is Illuminated
Feb 26
Full
Mar 4
Last Quarter
Mar 11
New
Mar 19
First Quarter
Mar 27
Full

Hourly Weather History & Observations

Time (EST) Temp. Heat Index Dew Point Humidity Pressure Visibility Wind Dir Wind Speed Gust Speed Precip Events Conditions
12:58 AM 77.0 °F - 73.4 °F 89% 29.88 in 10.0 mi SSE 11.5 mph - N/A   Clear
1:58 AM 75.2 °F - 71.6 °F 89% 29.86 in 10.0 mi SSE 8.1 mph - N/A   Clear
2:58 AM 75.2 °F - 71.6 °F 89% 29.85 in 10.0 mi South 10.4 mph - N/A   Clear
3:58 AM 75.2 °F - 71.6 °F 89% 29.82 in 10.0 mi SSE 9.2 mph - N/A   Clear
4:58 AM 75.2 °F - 71.6 °F 89% 29.84 in 10.0 mi South 8.1 mph - N/A   Clear
5:58 AM 75.2 °F - 71.6 °F 89% 29.84 in 10.0 mi South 9.2 mph - N/A   Clear
6:58 AM 75.2 °F - 71.6 °F 89% 29.86 in 10.0 mi South 11.5 mph - N/A   Clear
7:58 AM 77.0 °F - 71.6 °F 83% 29.88 in 10.0 mi South 11.5 mph - N/A   Clear
8:58 AM 78.8 °F - 71.6 °F 78% 29.89 in 10.0 mi SSE 17.3 mph - N/A   Clear
9:58 AM 80.6 °F 84.6 °F 71.6 °F 74% 29.91 in 10.0 mi South 16.1 mph - N/A   Partly Cloudy
10:58 AM 80.6 °F 84.6 °F 71.6 °F 74% 29.92 in 10.0 mi South 15.0 mph 21.9 mph N/A   Partly Cloudy
11:58 AM 82.4 °F 87.2 °F 71.6 °F 70% 29.92 in 10.0 mi South 16.1 mph 21.9 mph N/A   Partly Cloudy
12:58 PM 82.4 °F 86.3 °F 69.8 °F 66% 29.92 in 10.0 mi South 15.0 mph 21.9 mph N/A   Partly Cloudy
1:58 PM 82.4 °F 87.2 °F 71.6 °F 70% 29.89 in 10.0 mi South 10.4 mph - N/A   Clear
2:58 PM 82.4 °F 87.2 °F 71.6 °F 70% 29.87 in 10.0 mi South 13.8 mph 24.2 mph N/A   Partly Cloudy
3:58 PM 82.4 °F 87.2 °F 71.6 °F 70% 29.87 in 10.0 mi South 17.3 mph - N/A   Partly Cloudy
4:58 PM 80.6 °F 84.6 °F 71.6 °F 74% 29.88 in 10.0 mi SSW 12.7 mph - N/A   Clear
5:58 PM 78.8 °F - 73.4 °F 83% 29.88 in 10.0 mi South 8.1 mph - N/A   Clear
6:58 PM 77.0 °F - 71.6 °F 83% 29.90 in 10.0 mi South 5.8 mph - N/A   Clear
7:58 PM 75.2 °F - 73.4 °F 94% 29.91 in 10.0 mi South 5.8 mph - N/A   Clear
8:58 PM 75.2 °F - 73.4 °F 94% 29.93 in 10.0 mi South 6.9 mph - N/A   Clear
9:58 PM 75.2 °F - 73.4 °F 94% 29.93 in 10.0 mi South 5.8 mph - N/A   Clear
10:58 PM 75.2 °F - 73.4 °F 94% 29.94 in 10.0 mi South 5.8 mph - N/A   Clear
11:58 PM 75.2 °F - 73.4 °F 94% 29.92 in 10.0 mi SSW 5.8 mph - N/A   Clear